パンスターズ彗星

P/2014 W1 ( PanSTARRS )

English version
Home page
Updated on July 20, 2015

---------------------------------------------------------------------

・ プロフィール

発見日 2014年11月17日
発見光度 20.9等
発見者 Pan-STARRS 1 telescope (Haleakala)

・ 写真集

・ 軌道要素

Epoch 2014 Aug. 11.0 TT = JDT 2456880.5
T 2014 Aug. 1.06651 TT                                  MPCW
q   2.6620951            (2000.0)            P               Q
n   0.10643641     Peri.  150.34433     +0.78698070     -0.60059688
a   4.4097020      Node   247.24879     +0.53164025     +0.77627871
e   0.3963095      Incl.    8.80902     +0.31308150     +0.19150651
P   9.26
From 47 observations 2014 Nov. 17-2015 Feb. 14, mean residual 0".4.

・ 光度変化

        m1 = 13.5 + 5 logΔ + 10.0 log r

---------------------------------------------------------------------

軌道要素はM.P.E.C. 2015-G03に掲載されたものです。
光度グラフはComet for Windowsで作成したものです。

---------------------------------------------------------------------

Copyright(C) Seiichi Yoshida (comet@aerith.net). All rights reserved.